星链-36068(STARLINK-36068)

导读

STARLINK-36068是美国SpaceX星链星座的卫星,于2025年12月31日发射。作为星链互联网星座的组成部分,它旨在为全球提供低延迟、高速率的宽带互联网服务,尤其覆盖偏远和网络基础设施薄弱地区。星链通过大规模低轨卫星组网,依托空间传输技术,持续拓展全球卫星互联网覆盖范围,该卫星的发射延续了星链星座的组网推进节奏。

Basic Information
目录编号:
66845
目录名称:
STARLINK-36068
国际标识:
2025-280AA
轨道中心:
EARTH
卫星名称:
星链-36068
卫星全名:
星链-36068(STARLINK-36068)
卫星状态:
在轨 (已飞行284 天)
发射日期:
2025-12-02 UTC
国别 :
美国 (US)
星等 :
--
This satellite is enrolled in the Space Conjunction Data Service (SCDS) and the current flight risk assessment level is: No High Risk
Orbit Information
数据来源 国际轨道数据 AOE轨道数据
星历时间 2026-09-12T15:30:32+0800
8小时前
查看轨道信息
2026-09-06T06:00:00+0800
6天前
查看轨道信息
半长轴 6950.186km 6950.203km
偏心率 0.0003564 0.0003989
轨道倾角 70.000° 69.998°
近地点辐角 265.146° 262.648°
升交点赤经 223.770° 239.897°
平近点角 94.929° 166.213°
近地点 569.571km 569.293km
远地点 574.527km 574.839km
周期 96.107分钟 96.107分钟
每日圈数 14.983324 14.98327
Detailed Information
固有亮度:
5
最大亮度:
2.5
卫星平台:
Starlink V1.0
覆盖范围:
全球
运营商:
太空探索技术公司
运营商所在国:
美国
制造商(研发单位):
太空探索技术公司
制造商所在国:
美国
使用方式:
暂无
Satellite Introduction
Starlink 计划是 SpaceX 推出的全球卫星互联网项目,通过发射低轨道卫星,为全球尤其是偏远地区提供高速、低延迟的互联网服务。自 2019 年起,Starlink 已部署数千颗卫星,旨在缩小全球数字鸿沟,推动互联网普及。该项目还为军事、航空等行业提供通信支持,带来广泛经济效益。
2D Orbit Map
3D Orbit Map
Orbit Altitude Analysis Chart
Orbit Inclination Analysis Chart
Orbit Comprehensive Analysis Chart
View Comprehensive Chart
Conjunction Data List
Event ID Objects TCA Miss Dist (km) Collision Risk Probability Collision Risk Index (CRI) Action
CDM_260912-223305-646706-684521
2026-09-12T
22:33:40+0000
1.631 km
极远距离
4.884153E-6 低风险 0.49
CDM_260912-115003-609006-684523
2026-09-12T
11:50:36+0000
2.113 km
极远距离
1.814861E-6 低风险 0.4
CDM_260912-200905-646706-684521
2026-09-12T
20:09:30+0000
2.548 km
极远距离
1.62564E-6 低风险 0.39
Miss Distance Evolution Trend with All Objects
Collision Probability Evolution Trend with All Objects